Tracking 30995 objects as of 5-Jul-2025
HD Live streaming from Space Station
objects crossing your sky now

ONEWEB-0658

Track ONEWEB-0658 now!
10-day predictions
ONEWEB-0658 is classified as:


NORAD ID: 55819
Int'l Code: 2023-029Z
Perigee: 1,191.1 km
Apogee: 1,194.7 km
Inclination: 87.9 °
Period: 109.1 minutes
Semi major axis: 7563 km
RCS: Unknown
Launch date: March 9, 2023
Source: United Kingdom (UK)
Launch site: AIR FORCE EASTERN TEST RANGE (AFETR)
Your satellite tracking list
FENGYUN 1C DEB
Track 1 satellite(s)




NASA's NSSDC Master Catalog

Two Line Element Set (TLE):
1 55819U 23029Z   25186.58549873  .00000072  00000-0  14749-3 0  9992
2 55819  87.9216  13.8254 0002348  88.3214 271.8187 13.19725256113201
Source of the keplerian elements: AFSPC